Location: Home
(42.5358°N, 72.7383°W)
Time: 22:27:44
(UTC-05:00)

Altair - Pass Details

Date: 13 December 2021
Orbit: 1501 x 1683 km, 47.2° (Epoch: 26 January)

Event Time Altitude Azimuth Distance (km) Brightness Sun altitude
Rises 20:47:27 0° 291° (WNW) 4,673 10.7 -48.5°
Reaches altitude 10° 20:51:32 10° 275° (W) 3,669 10.0 -49.3°
Maximum altitude 20:57:35 20° 233° (SW) 2,946 9.1 -50.3°
Enters shadow 20:57:43 20° 232° (SW) 2,946 9.1 -50.4°
